Date,TemperatureHighF,TemperatureAvgF,TemperatureLowF,DewpointHighF,DewpointAvgF,DewpointLowF,HumidityHigh,HumidityAvg,HumidityLow,PressureMaxIn,PressureMinIn,WindSpeedMaxMPH,WindSpeedAvgMPH,GustSpeedMaxMPH,PrecipitationSumIn
2013-3-1,40.9,37.5,34.4,32.5,31.1,29.1,91,78,63,30.08,30.02,14,3,14,0.01
2013-3-2,37.4,34.0,31.1,32.3,30.2,26.5,92,86,76,30.15,30.02,21,5,21,0.03
2013-3-3,45.4,34.2,27.6,26.5,23.1,18.2,84,66,36,30.18,30.09,21,4,21,0.01
2013-3-4,59.5,45.9,29.7,41.9,30.3,25.1,85,57,35,30.16,29.89,18,3,18,0.00
2013-3-5,57.4,49.4,35.7,55.4,44.2,23.9,94,82,62,30.04,29.67,34,6,34,0.92
2013-3-6,45.4,38.3,29.7,32.2,28.6,23.3,85,69,58,30.29,30.03,28,6,28,0.00
2013-3-7,51.1,37.4,26.7,35.9,29.8,23.6,91,75,54,30.36,30.27,17,2,17,0.00
2013-3-8,63.2,43.4,29.3,35.2,29.5,21.9,89,63,24,30.37,30.22,14,1,14,0.00
2013-3-9,67.3,52.8,36.8,39.6,34.9,29.0,81,53,33,30.24,30.06,17,3,18,0.00
2013-3-10,72.6,63.3,53.9,49.7,42.2,35.7,53,46,38,30.08,29.82,32,8,32,0.00
2013-3-11,66.4,50.7,40.2,53.2,44.9,32.9,94,82,52,29.97,29.76,36,5,36,1.43
2013-3-12,57.2,43.2,30.8,38.0,32.9,28.5,93,69,42,30.17,29.96,20,3,20,0.00
2013-3-13,52.3,41.3,32.1,32.5,27.5,22.8,89,61,33,30.37,30.15,18,4,28,0.00
2013-3-14,55.4,40.2,25.4,33.5,25.0,20.4,86,58,28,30.44,30.23,14,2,14,0.00
2013-3-15,76.4,57.2,37.1,49.3,39.9,27.7,76,54,37,30.24,29.93,13,3,20,0.00
2013-3-16,77.0,67.0,51.9,50.4,48.2,45.3,82,53,37,29.93,29.82,22,5,22,0.00
2013-3-17,71.7,64.0,51.8,54.1,51.3,46.2,81,64,47,29.90,29.80,18,4,18,0.00
2013-3-18,63.4,59.5,49.3,60.7,55.7,45.1,95,87,74,29.93,29.70,29,5,31,0.77
2013-3-19,62.7,49.3,35.2,45.1,34.9,23.1,96,62,28,30.14,29.93,18,3,18,0.00
2013-3-20,59.9,46.6,36.9,31.5,27.1,18.6,72,48,30,30.16,29.97,31,4,32,0.00
2013-3-21,48.7,37.5,26.3,30.5,21.1,14.4,75,53,31,30.10,29.94,17,3,17,0.00
2013-3-22,49.1,44.6,40.3,40.0,32.5,25.1,76,62,53,30.03,29.94,11,1,11,0.01
2013-3-23,53.5,48.9,45.1,50.9,46.7,40.3,95,92,78,29.96,29.65,14,2,14,1.27
2013-3-24,61.3,51.9,39.4,54.5,46.4,28.6,95,82,64,29.79,29.45,32,7,32,0.58
2013-3-25,39.6,36.6,34.9,29.0,26.3,24.9,74,66,57,30.16,29.78,24,8,24,0.00
2013-3-26,42.3,37.0,32.9,31.4,28.9,26.9,80,73,62,30.35,30.14,21,4,21,0.00
2013-3-27,54.6,40.1,26.4,34.4,29.6,23.5,91,69,40,30.41,30.28,17,2,18,0.00
2013-3-28,63.5,46.1,31.6,37.7,33.0,28.5,91,65,34,30.37,30.25,14,1,14,0.00
2013-3-29,68.1,52.5,36.4,44.0,38.2,33.2,90,61,34,30.29,30.13,15,2,18,0.00
2013-3-30,67.4,56.1,45.0,56.0,49.0,40.9,95,78,56,30.16,29.94,10,1,11,0.74
2013-3-31,64.2,57.6,54.6,60.5,56.0,53.1,96,94,85,29.94,29.84,11,1,11,0.45